| time (UTC) | temp F | wind direction | speed MPH | gust MPH | rain 1hr in | rain 24hr in | rain mn in | humidity % | barometer mb |
| 20260506153024 | 64 | 194 | 1.0 | 3.0 | 0.00 | 0.00 | 0.00 | 84 | 1009.0 |
| 20260506151523 | 64 | 194 | 2.0 | 5.0 | 0.00 | 0.00 | 0.00 | 79 | 1009.1 |
| 20260506150024 | 64 | 194 | 0.0 | 3.0 | 0.00 | 0.00 | 0.00 | 78 | 1009.4 |
| 20260506144522 | 65 | 155 | 1.0 | 5.0 | 0.00 | 0.00 | 0.00 | 76 | 1009.4 |
| 20260506143021 | 65 | 146 | 1.0 | 6.0 | 0.00 | 0.00 | 0.00 | 76 | 1009.4 |
| 20260506141520 | 65 | 150 | 2.0 | 5.0 | 0.00 | 0.00 | 0.00 | 76 | 1009.2 |
| 20260506140020 | 65 | 173 | 1.0 | 4.0 | 0.00 | 0.00 | 0.00 | 76 | 1009.3 |
| 20260506134523 | 65 | 143 | 1.0 | 7.0 | 0.00 | 0.00 | 0.00 | 76 | 1009.4 |
| 20260506133019 | 65 | 194 | 1.0 | 6.0 | 0.00 | 0.00 | 0.00 | 77 | 1009.6 |
| 20260506131537 | 65 | 198 | 2.0 | 8.0 | 0.00 | 0.00 | 0.00 | 77 | 1009.3 |
| 20260506130032 | 64 | 194 | 1.0 | 5.0 | 0.00 | 0.00 | 0.00 | 78 | 1009.6 |
| 20260506124516 | 0 | 0.0 | 0.0 | 0.00 | 0.00 | 0.00 | 1009.3 | ||
| 20260506123011 | 0 | 0.0 | 0.0 | 0.00 | 0.00 | 0.00 | 1009.2 | ||
| 20260506121507 | 0 | 0.0 | 0.0 | 0.00 | 0.00 | 0.00 | 1009.4 | ||
| 20260506120007 | 0 | 0.0 | 0.0 | 0.00 | 0.00 | 0.00 | 1009.6 | ||
| 20260506114600 | 0 | 0.0 | 0.0 | 0.00 | 0.00 | 0.00 | 1009.7 | ||
| 20260506113054 | 0 | 0.0 | 0.0 | 0.00 | 0.00 | 0.00 | 1009.7 | ||
| 20260506111549 | 0 | 0.0 | 0.0 | 0.00 | 0.00 | 0.00 | 1009.6 | ||
| 20260506110046 | 0 | 0.0 | 0.0 | 0.00 | 0.00 | 0.00 | 1009.5 | ||
| 20260506104547 | 0 | 0.0 | 0.0 | 0.00 | 0.00 | 0.00 | 1009.4 | ||
| 20260506103040 | 0 | 159 | 1.0 | 3.0 | 0.00 | 0.00 | 0.00 | 81 | 1009.5 |
| 20260506101536 | 63 | 118 | 1.0 | 4.0 | 0.00 | 0.00 | 0.00 | 81 | 1009.2 |
| 20260506100038 | 63 | 134 | 1.0 | 4.0 | 0.00 | 0.00 | 0.00 | 81 | 1009.4 |
| 20260506094546 | 63 | 167 | 1.0 | 3.0 | 0.00 | 0.00 | 0.00 | 81 | 1009.1 |
| 20260506093038 | 63 | 154 | 1.0 | 3.0 | 0.00 | 0.00 | 0.00 | 81 | 1009.3 |
| 20260506091532 | 62 | 161 | 1.0 | 3.0 | 0.00 | 0.00 | 0.00 | 81 | 1009.4 |
| 20260506090030 | 62 | 152 | 0.0 | 2.0 | 0.00 | 0.00 | 0.00 | 81 | 1009.4 |
| 20260506084529 | 63 | 155 | 0.0 | 4.0 | 0.00 | 0.00 | 0.00 | 80 | 1009.6 |
| 20260506083027 | 63 | 148 | 1.0 | 3.0 | 0.00 | 0.00 | 0.00 | 79 | 1009.6 |
| 20260506081532 | 63 | 144 | 0.0 | 2.0 | 0.00 | 0.00 | 0.00 | 78 | 1009.7 |
| 20260506073019 | 64 | 156 | 1.0 | 3.0 | 0.00 | 0.00 | 0.00 | 74 | 1009.8 |
| 20260506071520 | 65 | 146 | 0.0 | 2.0 | 0.00 | 0.00 | 0.00 | 73 | 1009.7 |
| 20260506061515 | 65 | 143 | 0.0 | 3.0 | 0.00 | 0.00 | 0.00 | 70 | 1010.0 |
| 20260506044614 | 67 | 153 | 1.0 | 5.0 | 0.00 | 0.00 | 0.00 | 66 | 1010.8 |
| 20260506043058 | 67 | 155 | 1.0 | 5.0 | 0.00 | 0.00 | 0.00 | 66 | 1010.7 |
| 20260506041557 | 67 | 205 | 1.0 | 4.0 | 0.00 | 0.00 | 0.00 | 65 | 1010.8 |
| 20260506040054 | 67 | 194 | 1.0 | 8.0 | 0.00 | 0.00 | 0.00 | 65 | 1010.7 |
| 20260506034553 | 68 | 194 | 1.0 | 6.0 | 0.00 | 0.00 | 0.00 | 64 | 1010.6 |
| 20260506033055 | 68 | 194 | 2.0 | 6.0 | 0.00 | 0.00 | 0.00 | 63 | 1010.7 |
| 20260506031557 | 69 | 194 | 1.0 | 6.0 | 0.00 | 0.00 | 0.00 | 62 | 1010.6 |
| 20260506030052 | 69 | 194 | 2.0 | 7.0 | 0.00 | 0.00 | 0.00 | 60 | 1010.5 |
| 20260506024558 | 70 | 146 | 2.0 | 5.0 | 0.00 | 0.00 | 0.00 | 58 | 1010.5 |
| 20260506023053 | 70 | 148 | 2.0 | 6.0 | 0.00 | 0.00 | 0.00 | 55 | 1010.5 |
| 20260506021550 | 71 | 119 | 1.0 | 4.0 | 0.00 | 0.00 | 0.00 | 52 | 1010.5 |
| 20260506020050 | 71 | 148 | 2.0 | 5.0 | 0.00 | 0.00 | 0.00 | 51 | 1010.3 |
| 20260506014549 | 72 | 154 | 1.0 | 4.0 | 0.00 | 0.00 | 0.00 | 50 | 1010.3 |
| 20260506013050 | 72 | 149 | 1.0 | 6.0 | 0.00 | 0.00 | 0.00 | 50 | 1010.1 |
| 20260506011548 | 72 | 158 | 1.0 | 5.0 | 0.00 | 0.00 | 0.00 | 49 | 1010.1 |
| 20260506010048 | 73 | 146 | 1.0 | 4.0 | 0.00 | 0.00 | 0.00 | 48 | 1009.8 |
| 20260506004549 | 73 | 143 | 1.0 | 4.0 | 0.00 | 0.00 | 0.00 | 46 | 1009.7 |
| 20260506003047 | 74 | 194 | 1.0 | 6.0 | 0.00 | 0.00 | 0.00 | 44 | 1009.6 |
| 20260506001550 | 74 | 205 | 1.0 | 3.0 | 0.00 | 0.00 | 0.00 | 43 | 1009.3 |
| 20260506000045 | 74 | 194 | 1.0 | 4.0 | 0.00 | 0.00 | 0.00 | 42 | 1009.3 |
| 20260505234549 | 75 | 194 | 1.0 | 5.0 | 0.00 | 0.00 | 0.00 | 41 | 1009.2 |
| 20260505233044 | 76 | 131 | 2.0 | 5.0 | 0.00 | 0.00 | 0.00 | 39 | 1009.2 |
| 20260505231557 | 76 | 153 | 1.0 | 4.0 | 0.00 | 0.00 | 0.00 | 39 | 1009.0 |
| 20260505230055 | 76 | 150 | 0.0 | 3.0 | 0.00 | 0.00 | 0.00 | 38 | 1008.9 |
| 20260505224543 | 77 | 144 | 1.0 | 5.0 | 0.00 | 0.00 | 0.00 | 37 | 1008.7 |
| 20260505223042 | 77 | 164 | 3.0 | 6.0 | 0.00 | 0.00 | 0.00 | 36 | 1008.6 |
| 20260505221542 | 77 | 194 | 1.0 | 4.0 | 0.00 | 0.00 | 0.00 | 36 | 1008.7 |
| 20260505220042 | 78 | 194 | 2.0 | 7.0 | 0.00 | 0.00 | 0.00 | 35 | 1008.5 |
| 20260505214542 | 79 | 127 | 2.0 | 9.0 | 0.00 | 0.00 | 0.00 | 34 | 1008.3 |
| 20260505213051 | 79 | 158 | 1.0 | 9.0 | 0.00 | 0.00 | 0.00 | 35 | 1008.3 |
| 20260505211542 | 79 | 167 | 1.0 | 6.0 | 0.00 | 0.00 | 0.00 | 34 | 1008.1 |
| 20260505210039 | 80 | 135 | 2.0 | 6.0 | 0.00 | 0.00 | 0.00 | 35 | 1008.0 |
| 20260505204537 | 80 | 125 | 1.0 | 8.0 | 0.00 | 0.00 | 0.00 | 36 | 1007.9 |
| 20260505203039 | 80 | 133 | 2.0 | 9.0 | 0.00 | 0.00 | 0.00 | 38 | 1008.0 |
| 20260505201537 | 80 | 163 | 2.0 | 8.0 | 0.00 | 0.00 | 0.00 | 38 | 1008.2 |
| 20260505200134 | 80 | 194 | 4.0 | 8.0 | 0.00 | 0.00 | 0.00 | 36 | 1008.3 |
| 20260505194534 | 81 | 179 | 3.0 | 7.0 | 0.00 | 0.00 | 0.00 | 38 | 1008.3 |
| 20260505193032 | 81 | 194 | 2.0 | 6.0 | 0.00 | 0.00 | 0.00 | 37 | 1008.3 |
| 20260505191533 | 81 | 169 | 2.0 | 8.0 | 0.00 | 0.00 | 0.00 | 38 | 1008.4 |
| 20260505190034 | 81 | 149 | 3.0 | 8.0 | 0.00 | 0.00 | 0.00 | 37 | 1008.7 |
| 20260505184528 | 82 | 138 | 3.0 | 8.0 | 0.00 | 0.00 | 0.00 | 33 | 1008.8 |
| 20260505183033 | 81 | 173 | 3.0 | 7.0 | 0.00 | 0.00 | 0.00 | 36 | 1009.2 |
| 20260505181524 | 80 | 122 | 3.0 | 6.0 | 0.00 | 0.00 | 0.00 | 39 | 1009.3 |
| 20260505180042 | 81 | 177 | 3.0 | 8.0 | 0.00 | 0.00 | 0.00 | 38 | 1009.6 |
| 20260505174522 | 81 | 156 | 2.0 | 9.0 | 0.00 | 0.00 | 0.00 | 41 | 1009.5 |
| 20260505173021 | 81 | 176 | 3.0 | 9.0 | 0.00 | 0.00 | 0.00 | 41 | 1009.7 |
| 20260505171518 | 81 | 160 | 2.0 | 8.0 | 0.00 | 0.00 | 0.00 | 41 | 1009.9 |
| 20260505170016 | 82 | 113 | 2.0 | 6.0 | 0.00 | 0.00 | 0.00 | 42 | 1010.0 |
| 20260505164515 | 81 | 153 | 1.0 | 7.0 | 0.00 | 0.00 | 0.00 | 44 | 1010.2 |
| 20260505163014 | 81 | 148 | 2.0 | 6.0 | 0.00 | 0.00 | 0.00 | 43 | 1010.3 |
| 20260505161511 | 81 | 122 | 1.0 | 6.0 | 0.00 | 0.00 | 0.00 | 43 | 1010.4 |